EW4713 Weather Reports


Display with metric or nautical units.
time (UTC)temp
F
wind
direction
speed
MPH
gust
MPH
rain 1hr
in
rain 24hr
in
rain mn
in
humidity
%
barometer
mb
20260508200001 63 144 4.0 16.0 0.00 0.00 0.00 32 1002.7
20260508194503 62 115 8.0 13.0 0.00 0.00 0.00 35 1002.8
20260508194001 62 154 2.0 13.0 0.00 0.00 0.00 34 1002.7
20260508193001 65 140 5.0 18.0 0.00 0.00 0.00 34 1002.2
20260508192500 65 133 3.0 13.0 0.00 0.00 0.00 34 1002.7
20260508191502 66 129 2.0 15.0 0.00 0.00 0.00 32 1002.8
20260508191003 63 153 4.0 15.0 0.00 0.00 0.00 32 1002.7
20260508190500 61 130 10.0 13.0 0.00 0.00 0.00 32 1002.8
20260508190001 60 80 5.0 9.0 0.00 0.00 0.00 30 1002.8
20260508185502 61 139 0.0 10.0 0.00 0.00 0.00 30 1002.9
20260508185002 61 135 2.0 12.0 0.00 0.00 0.00 29 1002.9
20260508184501 62 113 4.0 12.0 0.00 0.00 0.00 29 1003.1
20260508184001 60 108 6.0 9.0 0.00 0.00 0.00 30 1003.2
20260508183003 61 125 4.0 9.0 0.00 0.00 0.00 28 1003.1
20260508182500 62 120 0.0 12.0 0.00 0.00 0.00 28 1003.1
20260508181954 61 103 2.0 12.0 0.00 0.00 0.00 28 1003.1
20260508181454 61 99 3.0 12.0 0.00 0.00 0.00 28 1003.1
20260508180954 61 146 5.0 12.0 0.00 0.00 0.00 27 1003.2
20260508180456 63 90 3.0 12.0 0.00 0.00 0.00 26 1003.1
20260508174954 62 98 6.0 11.0 0.00 0.00 0.00 25 1003.4
20260508174455 62 125 4.0 9.0 0.00 0.00 0.00 26 1003.6
20260508173956 61 129 4.0 14.0 0.00 0.00 0.00 26 1003.5
20260508172954 62 72 2.0 10.0 0.00 0.00 0.00 28 1003.6
20260508171953 60 162 6.0 12.0 0.00 0.00 0.00 28 1003.9
20260508170951 61 99 5.0 9.0 0.00 0.00 0.00 28 1004.0
20260508170451 61 116 3.0 9.0 0.00 0.00 0.00 29 1004.0
20260508165442 60 95 3.0 10.0 0.00 0.00 0.00 28 1004.2
20260508164943 61 114 0.0 10.0 0.00 0.00 0.00 27 1004.3
20260508163932 63 122 3.0 10.0 0.00 0.00 0.00 25 1004.0
20260508163433 63 122 4.0 11.0 0.00 0.00 0.00 26 1004.1
20260508162432 60 101 0.0 9.0 0.00 0.00 0.00 30 1004.6
20260508161950 61 138 3.0 11.0 0.00 0.00 0.00 30 1004.6
20260508161433 61 94 2.0 11.0 0.00 0.00 0.00 29 1004.7
20260508160925 61 112 6.0 10.0 0.00 0.00 0.00 29 1004.6
20260508160423 61 162 2.0 10.0 0.00 0.00 0.00 30 1004.7
20260508155921 60 104 6.0 10.0 0.00 0.00 0.00 29 1004.5
20260508155422 60 114 4.0 10.0 0.00 0.00 0.00 28 1004.8
20260508154927 61 112 3.0 9.0 0.00 0.00 0.00 29 1004.7
20260508154407 61 90 0.0 7.0 0.00 0.00 0.00 27 1004.6
20260508153905 60 101 3.0 7.0 0.00 0.00 0.00 29 1004.8
20260508153406 60 104 3.0 8.0 0.00 0.00 0.00 29 1004.8
20260508152404 59 101 2.0 6.0 0.00 0.00 0.00 33 1005.1
20260508151903 59 22 0.0 12.0 0.00 0.00 0.00 33 1005.0
20260508151403 57 26 0.0 12.0 0.00 0.00 0.00 34 1005.0
20260508150901 57 102 4.0 10.0 0.00 0.00 0.00 34 1005.3
20260508150401 57 123 2.0 10.0 0.00 0.00 0.00 35 1005.4
20260508145901 57 112 2.0 8.0 0.00 0.00 0.00 35 1005.4
20260508145401 56 78 2.0 9.0 0.00 0.00 0.00 36 1005.4
20260508144400 55 74 1.0 6.0 0.00 0.00 0.00 38 1005.8
20260508143401 52 101 2.0 10.0 0.00 0.00 0.00 40 1005.7
20260508142901 52 90 4.0 6.0 0.00 0.00 0.00 42 1005.8
20260508142401 53 85 2.0 6.0 0.00 0.00 0.00 44 1005.6
20260508141901 51 36 2.0 6.0 0.00 0.00 0.00 44 1005.8
20260508141400 50 97 1.0 4.0 0.00 0.00 0.00 47 1005.9
20260508140902 47 106 2.0 7.0 0.00 0.00 0.00 48 1005.9
20260508140402 47 85 2.0 7.0 0.00 0.00 0.00 50 1006.1
20260508135401 46 79 2.0 4.0 0.00 0.00 0.00 50 1006.1
20260508134900 46 79 2.0 4.0 0.00 0.00 0.00 50 1006.3
20260508134400 46 86 2.0 4.0 0.00 0.00 0.00 52 1006.3
20260508133901 46 77 1.0 4.0 0.00 0.00 0.00 52 1006.8
20260508133401 45 63 1.0 4.0 0.00 0.00 0.00 53 1006.6
20260508132901 45 21 2.0 4.0 0.00 0.00 0.00 53 1006.6
20260508132400 44 73 2.0 3.0 0.00 0.00 0.00 57 1006.7
20260508131902 44 103 0.0 3.0 0.00 0.00 0.00 57 1006.6
20260508131400 43 117 2.0 3.0 0.00 0.00 0.00 58 1006.5
20260508130854 43 74 0.0 3.0 0.00 0.00 0.00 60 1006.8
20260508130356 42 82 1.0 4.0 0.00 0.00 0.00 60 1006.7
20260508124355 39 60 0.0 2.0 0.00 0.00 0.00 64 1006.6
20260508123853 38 90 0.0 2.0 0.00 0.00 0.00 63 1006.9
20260508123356 38 96 1.0 2.0 0.00 0.00 0.00 62 1006.9
20260508122354 37 84 0.0 2.0 0.00 0.00 0.00 65 1006.7
20260508121852 37 337 0.0 2.0 0.00 0.00 0.00 67 1006.7
20260508121353 37 90 0.0 2.0 0.00 0.00 0.00 66 1006.8
20260508120353 35 32 1.0 2.0 0.00 0.00 0.00 68 1006.6
20260508115849 35 66 0.0 2.0 0.00 0.00 0.00 69 1006.7
20260508115343 35 23 0.0 2.0 0.00 0.00 0.00 70 1006.7
20260508114844 34 90 0.0 1.0 0.00 0.00 0.00 70 1006.9
20260508113840 33 40 0.0 1.0 0.00 0.00 0.00 71 1006.9
20260508113342 33 75 0.0 2.0 0.00 0.00 0.00 72 1006.9
20260508112841 32 66 0.0 2.0 0.00 0.00 0.00 72 1006.9
20260508111840 31 66 0.0 2.0 0.00 0.00 0.00 74 1006.7
20260508110340 31 23 0.0 2.0 0.00 0.00 0.00 74 1006.6
20260508105838 31 77 0.0 1.0 0.00 0.00 0.00 74 1006.8
20260508105337 31 82 0.0 1.0 0.00 0.00 0.00 73 1006.9
20260508104839 31 18 0.0 1.0 0.00 0.00 0.00 73 1006.9
20260508104338 30 29 0.0 1.0 0.00 0.00 0.00 73 1006.8
20260508103839 31 29 0.0 1.0 0.00 0.00 0.00 73 1006.9
20260508103338 30 66 0.0 1.0 0.00 0.00 0.00 73 1007.0
20260508102838 30 66 0.0 1.0 0.00 0.00 0.00 74 1007.2
20260508102337 30 90 0.0 2.0 0.00 0.00 0.00 74 1007.0
20260508101343 30 49 0.0 1.0 0.00 0.00 0.00 74 1007.1
20260508100837 30 29 0.0 2.0 0.00 0.00 0.00 73 1007.0
20260508100331 30 7 0.0 2.0 0.00 0.00 0.00 73 1007.1
20260508095331 29 53 0.0 2.0 0.00 0.00 0.00 75 1007.1
20260508094833 29 37 0.0 2.0 0.00 0.00 0.00 75 1007.1
20260508093330 28 32 1.0 2.0 0.00 0.00 0.00 76 1007.2
20260508092829 28 33 0.0 2.0 0.00 0.00 0.00 76 1007.2
20260508092329 28 32 1.0 2.0 0.00 0.00 0.00 77 1007.3
20260508091830 28 82 0.0 1.0 0.00 0.00 0.00 77 1007.6
20260508091330 28 60 0.0 2.0 0.00 0.00 0.00 77 1007.5
20260508090829 28 7 0.0 2.0 0.00 0.00 0.00 77 1007.5
20260508090331 28 36 0.0 2.0 0.00 0.00 0.00 77 1007.4
20260508085829 28 23 1.0 2.0 0.00 0.00 0.00 77 1007.7
20260508085328 28 114 1.0 3.0 0.00 0.00 0.00 77 1007.6
20260508084830 29 18 1.0 3.0 0.00 0.00 0.00 76 1007.6
20260508084328 28 60 0.0 2.0 0.00 0.00 0.00 77 1007.6
20260508083827 28 23 0.0 2.0 0.00 0.00 0.00 76 1007.6
20260508082827 28 120 0.0 2.0 0.00 0.00 0.00 76 1007.6
20260508082326 28 66 0.0 2.0 0.00 0.00 0.00 76 1007.6
20260508081828 29 114 0.0 1.0 0.00 0.00 0.00 75 1007.9
20260508081327 28 71 0.0 2.0 0.00 0.00 0.00 77 1007.9
20260508080332 28 98 0.0 1.0 0.00 0.00 0.00 78 1007.8
20260508075825 29 82 0.0 1.0 0.00 0.00 0.00 76 1007.7
20260508075327 29 75 0.0 1.0 0.00 0.00 0.00 75 1007.8
20260508074826 29 90 0.0 2.0 0.00 0.00 0.00 75 1007.6
20260508074327 29 75 0.0 2.0 0.00 0.00 0.00 76 1007.6
20260508073827 28 90 0.0 1.0 0.00 0.00 0.00 79 1007.8
20260508073325 28 120 0.0 2.0 0.00 0.00 0.00 78 1007.7
20260508072325 28 60 1.0 2.0 0.00 0.00 0.00 79 1007.8
20260508071827 28 75 0.0 1.0 0.00 0.00 0.00 79 1007.9
20260508071325 28 82 0.0 1.0 0.00 0.00 0.00 78 1007.9
20260508070826 28 69 0.0 1.0 0.00 0.00 0.00 76 1007.7
20260508065825 28 66 0.0 1.0 0.00 0.00 0.00 76 1008.0
20260508065325 28 60 0.0 2.0 0.00 0.00 0.00 75 1008.1
20260508064824 29 84 1.0 2.0 0.00 0.00 0.00 75 1007.8
20260508064324 29 78 0.0 2.0 0.00 0.00 0.00 74 1008.4
20260508063816 29 66 1.0 2.0 0.00 0.00 0.00 75 1008.0
20260508063315 29 75 0.0 2.0 0.00 0.00 0.00 75 1008.1
20260508062814 29 54 0.0 2.0 0.00 0.00 0.00 75 1008.1
20260508062316 29 60 0.0 2.0 0.00 0.00 0.00 75 1008.2
20260508061814 30 57 1.0 2.0 0.00 0.00 0.00 72 1008.3
20260508061314 30 75 1.0 2.0 0.00 0.00 0.00 71 1008.3
20260508060814 30 90 1.0 2.0 0.00 0.00 0.00 72 1008.2
20260508055805 29 26 0.0 2.0 0.00 0.00 0.00 72 1008.3
20260508055306 29 20 1.0 2.0 0.00 0.00 0.00 72 1008.1
20260508054804 29 66 1.0 2.0 0.00 0.00 0.00 73 1008.2
20260508054301 29 26 1.0 2.0 0.00 0.00 0.00 72 1008.5
20260508053801 29 66 0.0 2.0 0.00 0.00 0.00 75 1008.3
20260508053300 29 57 1.0 2.0 0.00 0.00 0.00 72 1008.8
20260508052802 29 36 2.0 2.0 0.00 0.00 0.00 73 1008.5
20260508052301 29 26 0.0 2.0 0.00 0.00 0.00 77 1008.5
20260508051301 29 18 1.0 2.0 0.00 0.00 0.00 72 1008.5
20260508050802 29 69 0.0 2.0 0.00 0.00 0.00 71 1009.1
20260508050300 30 80 2.0 2.0 0.00 0.00 0.00 69 1008.9
20260508045803 30 26 1.0 1.0 0.00 0.00 0.00 70 1008.6
20260508045301 29 23 0.0 0.0 0.00 0.00 0.00 71 1008.9
20260508044801 30 23 0.0 0.0 0.00 0.00 0.00 70 1009.1
20260508044300 30 23 0.0 0.0 0.00 0.00 0.00 69 1009.0
20260508042801 31 23 0.0 0.0 0.00 0.00 0.00 66 1008.9
20260508042306 31 23 0.0 0.0 0.00 0.00 0.00 65 1009.2
20260508041801 31 23 0.0 1.0 0.00 0.00 0.00 64 1009.3
20260508040801 32 60 0.0 1.0 0.00 0.00 0.00 68 1009.4
20260508040300 32 66 0.0 1.0 0.00 0.00 0.00 68 1009.2
20260508035805 31 66 0.0 0.0 0.00 0.00 0.00 68 1009.1
20260508035307 32 66 0.0 0.0 0.00 0.00 0.00 67 1009.2
20260508034803 32 66 0.0 0.0 0.00 0.00 0.00 67 1009.2
20260508034303 32 66 0.0 1.0 0.00 0.00 0.00 65 1009.4
20260508033803 33 66 0.0 1.0 0.00 0.00 0.00 63 1009.3
20260508033301 33 66 1.0 1.0 0.00 0.00 0.00 65 1009.3
20260508032803 34 23 0.0 1.0 0.00 0.00 0.00 64 1009.3
20260508031758 34 74 0.0 1.0 0.00 0.00 0.00 61 1009.4
20260508031259 35 90 0.0 1.0 0.00 0.00 0.00 61 1009.5
20260508030759 35 74 0.0 1.0 0.00 0.00 0.00 60 1009.3
20260508025756 35 74 0.0 1.0 0.00 0.00 0.00 60 1009.2
20260508024750 35 0 0.0 0.0 0.00 0.00 0.00 58 1009.2
20260508024250 36 0 0.0 0.0 0.00 0.00 0.00 58 1009.2
20260508023749 36 0 0.0 0.0 0.00 0.00 0.00 56 1009.3
20260508023249 37 0 0.0 0.0 0.00 0.00 0.00 55 1009.3
20260508022750 38 0 0.0 0.0 0.00 0.00 0.00 54 1009.3
20260508022239 39 0 0.0 1.0 0.00 0.00 0.00 53 1009.2
20260508021738 40 0 0.0 1.0 0.00 0.00 0.00 51 1009.5
20260508021238 40 354 0.0 1.0 0.00 0.00 0.00 51 1009.2
20260508020739 40 7 0.0 1.0 0.00 0.00 0.00 51 1009.2
20260508015737 41 165 0.0 0.0 0.00 0.00 0.00 49 1009.1
20260508015239 42 165 0.0 0.0 0.00 0.00 0.00 49 1008.8
20260508014738 42 165 0.0 0.0 0.00 0.00 0.00 47 1009.0
20260508014239 43 165 0.0 0.0 0.00 0.00 0.00 45 1008.9
20260508013737 44 165 0.0 0.0 0.00 0.00 0.00 44 1008.9
20260508012729 45 165 0.0 0.0 0.00 0.00 0.00 42 1008.8
20260508012229 45 165 0.0 0.0 0.00 0.00 0.00 41 1008.9
20260508011229 47 165 0.0 3.0 0.00 0.00 0.00 38 1008.8
20260508010729 48 151 0.0 3.0 0.00 0.00 0.00 39 1008.8
20260508010231 48 157 0.0 2.0 0.00 0.00 0.00 37 1008.8
20260508005730 49 106 0.0 2.0 0.00 0.00 0.00 37 1008.8
20260508004729 51 254 0.0 4.0 0.00 0.00 0.00 34 1008.6
20260508004230 52 180 0.0 4.0 0.00 0.00 0.00 33 1008.6
20260508003733 52 119 2.0 7.0 0.00 0.00 0.00 33 1008.5
20260508003228 51 180 1.0 7.0 0.00 0.00 0.00 34 1008.9
20260508002731 51 54 5.0 6.0 0.00 0.00 0.00 33 1008.6
20260508002229 51 132 2.0 6.0 0.00 0.00 0.00 32 1008.3
20260508001729 52 78 2.0 6.0 0.00 0.00 0.00 33 1008.5
20260508001230 53 123 1.0 6.0 0.00 0.00 0.00 32 1008.9
20260508000729 53 78 1.0 6.0 0.00 0.00 0.00 32 1008.6
20260507235229 53 186 1.0 6.0 0.00 0.00 0.00 33 1008.8
20260507234729 53 87 3.0 6.0 0.00 0.00 0.00 31 1008.6
20260507234229 54 172 3.0 8.0 0.00 0.00 0.00 32 1008.8
20260507233731 53 143 2.0 8.0 0.00 0.00 0.00 31 1008.6
20260507232229 55 171 3.0 10.0 0.00 0.00 0.00 29 1008.8
20260507231729 54 161 4.0 10.0 0.00 0.00 0.00 31 1008.8
20260507231231 55 5 0.0 7.0 0.00 0.00 0.00 32 1008.8
20260507230729 56 180 5.0 7.0 0.00 0.00 0.00 30 1008.6
20260507230229 55 113 3.0 13.0 0.00 0.00 0.00 31 1008.8
20260507225730 54 94 2.0 13.0 0.00 0.00 0.00 30 1008.9
20260507224731 55 90 1.0 10.0 0.00 0.00 0.00 30 1008.8
20260507223729 55 93 4.0 6.0 0.00 0.00 0.00 30 1008.9
20260507223231 54 111 3.0 6.0 0.00 0.00 0.00 31 1008.8
20260507222730 55 209 4.0 6.0 0.00 0.00 0.00 31 1009.1
20260507222232 53 90 0.0 6.0 0.00 0.00 0.00 34 1008.9
20260507221729 51 90 0.0 7.0 0.00 0.00 0.00 35 1009.1
20260507221229 52 143 2.0 7.0 0.00 0.00 0.00 35 1009.1
20260507220730 54 135 3.0 8.0 0.00 0.00 0.00 33 1008.9
20260507220229 53 306 1.0 8.0 0.00 0.00 0.00 34 1008.9
20260507215729 53 225 0.0 5.0 0.00 0.00 0.00 34 1008.8
20260507214229 54 283 2.0 6.0 0.00 0.00 0.00 33 1009.1
20260507213725 56 99 4.0 7.0 0.00 0.00 0.00 34 1009.1
20260507213227 55 206 5.0 8.0 0.00 0.00 0.00 34 1009.0
20260507212725 55 90 3.0 8.0 0.00 0.00 0.00 35 1009.2
20260507212225 54 236 2.0 5.0 0.00 0.00 0.00 35 1009.3
20260507211723 54 132 2.0 7.0 0.00 0.00 0.00 36 1009.1
20260507211224 52 206 2.0 7.0 0.00 0.00 0.00 37 1009.4
20260507210721 51 200 1.0 5.0 0.00 0.00 0.00 36 1009.4
20260507210209 54 164 5.0 7.0 0.00 0.00 0.00 35 1009.5
20260507205712 53 180 2.0 7.0 0.00 0.00 0.00 36 1009.3
20260507205206 53 141 4.0 7.0 0.00 0.00 0.00 37 1009.3
20260507204702 53 190 2.0 9.0 0.00 0.00 0.00 35 1009.4
20260507204203 53 95 2.0 9.0 0.00 0.00 0.00 37 1009.2
20260507203702 53 173 1.0 7.0 0.00 0.00 0.00 36 1009.4
20260507203205 51 147 3.0 7.0 0.00 0.00 0.00 39 1009.5
20260507202703 51 139 2.0 8.0 0.00 0.00 0.00 39 1009.5
20260507202202 51 165 2.0 8.0 0.00 0.00 0.00 37 1009.6
20260507201703 55 169 1.0 6.0 0.00 0.00 0.00 35 1009.7
20260507201204 53 152 4.0 7.0 0.00 0.00 0.00 37 1009.5
20260507200702 51 180 3.0 7.0 0.00 0.00 0.00 37 1009.8